Zurück zum Katalog

CZ-2C DEB

AktivPO
NORAD 37734·DEBRIS·🇨🇳 China

Gestartet Jul 6, 2011 von Jiuquan Satellite Launch Center

Loading…

Nächste Überflüge (nächste 24 Stunden)

TLE

AktuellSource: Space-Track

Epoche: Sep 14, 2026, 14:08 UTC

1 37734U 11030E   26257.58916070  .00166771  00000-0  23401-2 0  9997
2 37734  98.1913 258.7725 0011420  41.6240 318.5880 15.56085810811257

Verfolge CZ-2C DEB in Echtzeit mit AllMySat

Download on the App Store